TimePST,TemperatureF,Dew PointF,Humidity,Sea Level PressureIn,VisibilityMPH,Wind Direction,Wind SpeedMPH,Gust SpeedMPH,PrecipitationIn,Events,Conditions,WindDirDegrees,DateUTC
12:15 AM,55.4,53.6,94,30.14,10.0,South,5.8,-,N/A,,Overcast,180,2013-11-07 08:15:00
12:35 AM,55.4,55.4,100,30.14,10.0,South,5.8,-,N/A,,Overcast,180,2013-11-07 08:35:00
12:55 AM,55.4,55.4,100,30.13,10.0,South,5.8,-,N/A,,Overcast,180,2013-11-07 08:55:00
1:15 AM,55.4,55.4,100,30.12,10.0,South,6.9,-,N/A,,Overcast,180,2013-11-07 09:15:00
1:35 AM,55.4,55.4,100,30.11,10.0,South,5.8,-,N/A,,Overcast,190,2013-11-07 09:35:00
1:55 AM,55.4,55.4,100,30.11,10.0,South,4.6,-,N/A,,Overcast,190,2013-11-07 09:55:00
2:15 AM,55.4,55.4,100,30.10,10.0,South,6.9,-,N/A,,Overcast,190,2013-11-07 10:15:00
2:35 AM,55.4,55.4,100,30.10,10.0,South,4.6,-,N/A,,Overcast,190,2013-11-07 10:35:00
2:55 AM,55.4,55.4,100,30.09,10.0,South,3.5,-,N/A,,Overcast,190,2013-11-07 10:55:00
3:15 AM,55.4,55.4,100,30.09,10.0,SSW,6.9,-,N/A,,Overcast,200,2013-11-07 11:15:00
3:35 AM,55.4,55.4,100,30.08,10.0,SW,5.8,-,N/A,,Overcast,220,2013-11-07 11:35:00
3:55 AM,55.4,53.6,94,30.08,10.0,SW,6.9,-,N/A,,Overcast,230,2013-11-07 11:55:00
4:15 AM,55.4,53.6,94,30.08,5.0,SSW,10.4,16.1,N/A,,Overcast,210,2013-11-07 12:15:00
4:35 AM,55.4,53.6,94,30.07,9.0,SSW,10.4,17.3,N/A,,Overcast,210,2013-11-07 12:35:00
4:55 AM,55.4,53.6,94,30.07,8.0,SSW,9.2,-,N/A,,Overcast,200,2013-11-07 12:55:00
5:15 AM,55.4,53.6,94,30.07,10.0,South,11.5,17.3,0.01,,Mostly Cloudy,190,2013-11-07 13:15:00
5:35 AM,55.4,55.4,100,30.06,10.0,South,11.5,-,0.01,,Mostly Cloudy,190,2013-11-07 13:35:00
5:55 AM,55.4,55.4,100,30.06,10.0,SSW,10.4,17.3,0.01,,Mostly Cloudy,200,2013-11-07 13:55:00
6:15 AM,55.4,55.4,100,30.05,10.0,South,9.2,18.4,N/A,,Overcast,190,2013-11-07 14:15:00
6:35 AM,55.4,55.4,100,30.04,10.0,South,12.7,19.6,N/A,,Overcast,190,2013-11-07 14:35:00
6:55 AM,55.4,55.4,100,30.03,10.0,South,15.0,19.6,N/A,,Overcast,190,2013-11-07 14:55:00
7:15 AM,55.4,55.4,100,30.06,10.0,SSW,10.4,16.1,N/A,,Overcast,200,2013-11-07 15:15:00
7:35 AM,55.4,55.4,100,30.05,10.0,SSW,11.5,24.2,N/A,,Overcast,200,2013-11-07 15:35:00
7:55 AM,55.4,55.4,100,30.04,10.0,SSW,13.8,20.7,N/A,,Overcast,200,2013-11-07 15:55:00
8:15 AM,55.4,53.6,94,30.05,10.0,SSW,13.8,23.0,0.02,,Overcast,210,2013-11-07 16:15:00
8:35 AM,55.4,53.6,94,30.04,8.0,SSW,15.0,23.0,0.05,,Overcast,210,2013-11-07 16:35:00
8:55 AM,55.4,53.6,94,30.04,3.0,SW,18.4,26.5,0.06,,Overcast,220,2013-11-07 16:55:00
9:15 AM,55.4,55.4,100,30.08,3.0,West,24.2,29.9,0.03,,Overcast,280,2013-11-07 17:15:00
9:35 AM,51.8,51.8,100,30.09,5.0,West,11.5,-,0.32,,Overcast,280,2013-11-07 17:35:00
9:55 AM,51.8,51.8,100,30.09,5.0,West,12.7,-,0.35,,Overcast,270,2013-11-07 17:55:00
10:15 AM,51.8,51.8,100,30.10,5.0,WSW,9.2,-,0.04,,Overcast,250,2013-11-07 18:15:00
10:35 AM,51.8,51.8,100,30.11,6.0,West,10.4,-,0.10,,Overcast,260,2013-11-07 18:35:00
10:55 AM,51.8,50.0,94,30.12,8.0,WSW,10.4,-,0.14,,Overcast,250,2013-11-07 18:55:00
11:15 AM,51.8,50.0,94,30.12,10.0,WSW,9.2,-,N/A,,Overcast,250,2013-11-07 19:15:00
11:35 AM,51.8,51.8,100,30.13,9.0,West,9.2,-,N/A,,Overcast,260,2013-11-07 19:35:00
11:55 AM,51.8,51.8,100,30.12,10.0,SW,8.1,-,0.01,,Overcast,230,2013-11-07 19:55:00
12:15 PM,51.8,51.8,100,30.12,10.0,SW,6.9,-,N/A,,Overcast,230,2013-11-07 20:15:00
12:35 PM,51.8,51.8,100,30.12,10.0,SSW,3.5,-,N/A,,Overcast,210,2013-11-07 20:35:00
12:55 PM,53.6,51.8,94,30.12,10.0,SW,8.1,-,N/A,,Overcast,230,2013-11-07 20:55:00
1:15 PM,53.6,51.8,94,30.13,10.0,SW,5.8,-,N/A,,Overcast,220,2013-11-07 21:15:00
1:35 PM,53.6,51.8,94,30.13,10.0,SSW,4.6,-,N/A,,Scattered Clouds,210,2013-11-07 21:35:00
1:55 PM,55.4,53.6,94,30.13,10.0,WSW,8.1,-,N/A,,Scattered Clouds,250,2013-11-07 21:55:00
2:15 PM,55.4,53.6,94,30.15,10.0,SW,9.2,-,N/A,,Mostly Cloudy,230,2013-11-07 22:15:00
2:35 PM,53.6,51.8,94,30.15,10.0,WSW,9.2,-,N/A,,Scattered Clouds,240,2013-11-07 22:35:00
2:55 PM,53.6,51.8,94,30.16,10.0,SW,8.1,-,N/A,,Mostly Cloudy,220,2013-11-07 22:55:00
3:15 PM,53.6,51.8,94,30.16,10.0,SW,6.9,-,N/A,,Mostly Cloudy,220,2013-11-07 23:15:00
3:35 PM,53.6,51.8,94,30.16,10.0,SSW,6.9,-,N/A,,Mostly Cloudy,200,2013-11-07 23:35:00
3:55 PM,53.6,51.8,94,30.17,10.0,South,8.1,-,N/A,,Overcast,190,2013-11-07 23:55:00
4:15 PM,53.6,51.8,94,30.17,10.0,SSW,5.8,-,N/A,,Overcast,210,2013-11-08 00:15:00
4:35 PM,51.8,51.8,100,30.16,10.0,South,6.9,-,N/A,,Mostly Cloudy,190,2013-11-08 00:35:00
4:55 PM,51.8,51.8,100,30.16,10.0,South,5.8,-,N/A,,Mostly Cloudy,180,2013-11-08 00:55:00
5:15 PM,51.8,51.8,100,30.17,10.0,SSE,5.8,-,N/A,,Overcast,160,2013-11-08 01:15:00
5:35 PM,51.8,51.8,100,30.17,10.0,SSE,5.8,-,N/A,,Overcast,150,2013-11-08 01:35:00
5:55 PM,51.8,51.8,100,30.17,10.0,SSE,3.5,-,N/A,,Overcast,160,2013-11-08 01:55:00
6:15 PM,51.8,51.8,100,30.18,10.0,Calm,Calm,-,N/A,,Overcast,0,2013-11-08 02:15:00
6:35 PM,51.8,51.8,100,30.18,10.0,SSE,3.5,-,N/A,,Overcast,150,2013-11-08 02:35:00
6:55 PM,50.0,50.0,100,30.19,10.0,SE,3.5,-,N/A,,Overcast,140,2013-11-08 02:55:00
7:15 PM,50.0,50.0,100,30.19,10.0,SSE,4.6,-,N/A,,Overcast,150,2013-11-08 03:15:00
7:35 PM,50.0,50.0,100,30.20,10.0,SSE,3.5,-,N/A,,Overcast,160,2013-11-08 03:35:00
7:55 PM,48.2,48.2,100,30.19,10.0,SSE,5.8,-,N/A,,Overcast,150,2013-11-08 03:55:00
8:15 PM,50.0,50.0,100,30.19,10.0,SSE,6.9,-,N/A,,Mostly Cloudy,150,2013-11-08 04:15:00
8:35 PM,48.2,48.2,100,30.20,10.0,SSE,4.6,-,N/A,,Mostly Cloudy,150,2013-11-08 04:35:00
8:55 PM,50.0,50.0,100,30.20,10.0,Calm,Calm,-,N/A,,Mostly Cloudy,0,2013-11-08 04:55:00
9:15 PM,50.0,50.0,100,30.21,10.0,SSE,4.6,-,N/A,,Overcast,150,2013-11-08 05:15:00
9:35 PM,48.2,48.2,100,30.20,10.0,SSE,4.6,-,N/A,,Overcast,150,2013-11-08 05:35:00
9:55 PM,48.2,48.2,100,30.20,10.0,ESE,4.6,-,N/A,,Overcast,120,2013-11-08 05:55:00
10:15 PM,48.2,48.2,100,30.20,10.0,SSE,5.8,-,N/A,,Mostly Cloudy,150,2013-11-08 06:15:00
10:35 PM,48.2,48.2,100,30.21,10.0,SE,3.5,-,N/A,,Partly Cloudy,140,2013-11-08 06:35:00
10:55 PM,46.4,46.4,100,30.21,10.0,SSE,5.8,-,N/A,,Scattered Clouds,150,2013-11-08 06:55:00
11:15 PM,46.4,46.4,100,30.21,10.0,SSE,3.5,-,N/A,,Mostly Cloudy,150,2013-11-08 07:15:00
11:35 PM,46.4,46.4,100,30.21,10.0,Calm,Calm,-,N/A,,Mostly Cloudy,0,2013-11-08 07:35:00
11:55 PM,46.4,46.4,100,30.22,3.0,Calm,Calm,-,N/A,,Mostly Cloudy,0,2013-11-08 07:55:00